Location: Cieszkowy
(50.3290°N, 20.5336°E)
Time: 00:03:47
(UTC+00:00)

NOSS 3-2 (C) - Pass Details

Date: 15 June 2024
Orbit: 707 x 1504 km, 63.4° (Epoch: 17 July)

Event Time Altitude Azimuth Distance (km) Brightness Sun altitude
Exits shadow 01:05:12 12° 219° (SW) 2,183 4.7 -9.5°
Maximum altitude 01:10:09 85° 132° (SE) 873 3.3 -9.1°
Drops below altitude 10° 01:16:32 10° 44° (NE) 2,777 7.5 -8.5°
Sets 01:19:24 0° 44° (NE) 3,860 8.9 -8.2°
